Wind_Speed
11 11 11 11 11 11 11 11 11 11 12 12 12 12 12 13 13 13 13 13 13 14 14 14 14 15 15 15 15 15 15 14 14 14 16 16 16 16 15 15 15 15 15 14 14 14 14 14 14 14 14 15 15 15 16 17 17 18 20 21 21 21 20 17 16 17 19 20 21 21 20 21 21 19 21 22 22 20 17 14 14 15 13 12 15 16 17 16
13 13 13 13 13 13 13 13 13 13 13 13 14 14 14 14 14 15 15 15 15 15 16 16 16 16 17 17 17 17 17 16 15 15 16 18 17 17 16 15 15 15 14 14 14 14 14 14 14 15 15 15 16 16 17 17 17 19 21 24 24 22 21 19 18 19 21 23 23 24 23 23 22 22 23 24 24 22 19 14 14 16 13 14 17 19 20 17
15 15 15 15 15 15 15 15 15 15 15 15 15 15 15 15 15 15 16 16 16 17 17 17 18 18 18 19 19 20 19 17 16 17 19 18 17 15 15 15 15 16 16 16 16 16 16 16 16 16 17 17 17 17 17 17 19 21 22 26 26 22 23 22 20 21 22 24 26 25 25 26 24 24 26 26 26 25 21 15 15 18 16 17 20 21 21 19
17 17 17 17 16 16 16 16 16 16 16 16 16 16 16 16 16 16 17 17 17 18 18 18 19 19 20 20 20 21 21 19 17 17 18 16 15 15 16 17 18 19 19 19 18 18 18 18 17 18 18 19 19 18 18 18 20 23 24 26 26 24 25 24 22 23 25 25 26 26 26 28 27 27 28 28 30 27 21 18 17 20 21 22 23 22 21 20
19 19 19 18 18 18 18 18 18 17 17 18 17 17 17 17 17 17 18 18 18 18 19 19 19 20 21 21 21 22 21 18 15 16 17 16 17 18 19 19 20 21 20 19 19 19 19 18 18 19 19 20 19 20 20 19 21 25 27 26 25 25 26 25 23 24 26 26 26 26 27 28 29 30 29 30 33 27 22 22 22 23 25 25 24 23 22 22
21 21 20 20 20 19 19 19 19 19 19 19 19 19 19 19 19 19 19 19 20 20 20 20 20 21 21 22 22 23 22 15 14 19 20 19 20 20 20 20 20 20 20 19 19 19 19 19 19 19 20 21 21 22 21 21 22 27 29 27 26 26 27 26 25 25 26 27 27 26 27 28 29 30 30 33 34 27 24 25 25 26 27 27 26 24 24 24
22 22 21 21 21 21 21 21 21 20 20 20 20 21 21 21 21 21 21 21 22 21 22 22 22 22 22 24 23 24 23 16 15 21 21 20 20 19 20 20 20 19 19 19 19 20 20 20 20 21 22 23 24 24 23 23 25 28 31 29 27 28 28 27 28 28 28 29 29 28 29 28 29 31 33 37 35 28 25 25 25 27 27 27 26 24 24 25
23 23 22 22 22 22 22 22 22 21 21 21 21 22 22 22 22 22 22 23 23 23 23 22 23 23 23 24 24 26 24 16 15 19 18 18 18 18 19 19 20 20 20 21 21 22 22 22 22 22 23 24 26 26 25 25 28 30 30 29 29 30 29 29 31 31 30 31 31 30 31 29 30 33 36 38 34 28 26 25 25 28 27 27 27 26 25 25
23 23 23 23 22 22 22 22 22 22 22 22 22 22 22 22 23 23 23 23 23 23 23 23 24 23 24 24 25 27 21 14 14 16 16 17 17 18 20 21 22 22 23 23 23 23 23 24 24 24 24 25 27 27 27 26 29 31 29 30 32 32 31 31 33 32 31 32 32 33 33 30 30 34 38 37 31 28 27 27 27 28 28 28 27 27 27 27
24 24 24 24 24 24 24 24 23 23 23 23 23 23 23 23 24 24 24 24 24 25 25 25 25 25 25 24 27 27 19 15 17 17 17 19 20 21 22 22 23 23 24 24 25 25 25 25 26 25 26 27 27 28 27 28 30 31 31 33 33 33 33 33 34 33 32 32 32 32 31 30 30 34 38 35 31 31 30 29 28 28 29 29 29 29 29 30
25 25 25 25 25 25 24 24 24 24 24 24 24 24 24 24 24 24 25 25 26 26 26 26 27 27 27 26 28 27 22 20 22 21 21 21 22 23 23 23 24 24 25 25 25 26 26 26 27 26 26 27 27 27 29 30 31 32 32 34 33 33 34 34 35 33 32 32 30 30 31 32 33 35 35 32 32 34 34 32 30 30 31 31 31 31 31 32
26 26 25 25 25 25 25 25 25 25 25 25 25 25 25 25 25 25 26 26 26 26 26 27 27 27 28 28 28 26 26 26 25 23 23 23 23 24 25 25 25 26 26 26 27 27 27 27 27 26 25 27 27 27 29 30 31 31 32 34 35 35 35 34 33 31 30 31 30 29 31 34 36 36 33 30 32 35 36 35 33 32 32 32 33 33 33 32
26 26 26 26 26 26 26 26 26 27 27 27 27 27 27 26 26 26 27 27 27 27 27 27 27 28 29 29 27 26 27 27 26 25 24 24 24 25 25 26 26 26 27 27 27 27 27 27 26 25 25 25 25 26 29 31 32 32 33 36 36 35 36 33 30 30 31 31 31 29 28 34 38 36 33 32 32 34 35 36 36 35 34 33 34 34 34 33
27 27 27 27 27 28 28 28 28 28 28 28 28 28 27 27 27 27 27 27 27 27 27 27 27 28 29 28 26 27 27 27 26 24 22 22 22 22 23 24 24 25 25 25 26 26 27 27 26 26 25 25 26 27 30 33 33 32 34 35 34 33 35 34 31 31 33 34 33 31 30 36 40 36 35 34 32 34 35 36 37 37 35 35 35 34 34 33
29 29 28 28 28 28 28 28 28 28 28 28 28 28 28 27 27 27 26 26 26 26 26 27 27 27 29 28 26 26 25 24 22 21 21 21 20 21 21 22 22 22 23 23 24 25 26 27 27 26 25 25 27 29 31 32 31 31 31 31 32 34 36 37 33 33 35 36 35 33 31 36 41 38 35 35 35 36 37 37 37 37 36 35 35 35 35 33
29 29 28 28 28 28 28 27 27 28 28 27 27 27 27 27 27 27 27 26 26 26 26 26 26 26 28 26 25 24 23 23 22 21 20 19 19 19 19 20 20 21 23 24 25 26 27 27 26 26 25 25 27 30 30 29 30 32 31 32 34 36 37 37 37 35 35 38 39 38 35 37 42 41 38 38 37 37 39 38 37 36 35 35 35 34 34 32
29 28 28 28 27 27 26 26 26 26 26 26 26 26 26 26 27 27 27 26 26 26 26 26 27 28 29 27 25 24 23 22 20 18 17 19 20 21 22 23 23 25 26 27 27 28 28 28 27 26 25 27 30 29 25 23 28 30 31 34 35 36 37 37 39 38 36 39 40 41 44 45 44 42 40 39 37 38 37 36 35 34 32 30 28 26 25 25
28 27 27 26 26 26 25 25 24 25 26 26 25 25 26 26 26 26 27 27 27 27 28 28 27 28 27 24 22 21 20 20 20 21 22 24 26 26 27 27 27 28 28 29 30 30 30 29 29 27 27 30 31 29 26 25 29 29 29 33 34 36 38 39 42 40 38 39 40 43 48 48 46 42 39 37 35 35 33 33 33 29 23 19 19 19 17 15
26 26 25 25 25 25 24 24 24 24 25 25 25 25 26 26 26 27 27 27 27 27 28 28 27 27 25 23 22 23 23 25 26 26 26 27 28 28 29 29 29 29 30 31 31 30 30 30 29 28 30 33 31 30 31 31 33 31 31 33 34 37 40 41 42 39 37 40 42 43 44 45 42 39 37 34 31 31 33 31 24 17 16 19 19 16 14 12
25 25 25 24 24 24 24 24 24 24 24 25 25 25 26 27 27 27 27 27 27 27 28 28 29 29 27 27 27 27 27 27 27 27 27 28 29 30 31 31 31 31 31 32 31 31 31 31 31 31 31 31 30 29 31 33 33 33 33 34 35 37 39 40 39 36 36 40 41 38 40 41 39 39 37 32 29 30 27 19 14 17 22 21 17 15 15 13
25 25 25 24 24 24 23 23 23 23 23 24 24 24 26 26 27 29 29 28 26 27 28 28 30 31 28 28 28 26 27 27 27 28 28 29 30 32 33 33 32 32 32 30 30 31 30 31 32 31 29 28 28 28 29 30 30 31 32 32 34 35 38 38 33 30 31 35 38 38 39 40 40 41 35 26 20 13 9 13 21 24 21 18 15 14 11 7
25 24 24 24 23 22 22 22 22 23 23 23 23 24 24 25 27 29 31 32 28 26 28 28 30 30 27 27 28 26 27 28 28 28 29 30 31 33 35 34 33 33 31 29 30 31 31 32 31 27 26 26 27 27 27 28 28 29 30 32 34 33 36 35 28 26 28 32 37 38 40 43 40 32 21 9 0 2 10 22 25 21 15 11 9 6 3 5
24 23 23 23 21 21 21 21 22 23 23 24 24 24 24 25 26 28 30 33 32 27 27 29 30 29 27 27 27 26 29 29 29 29 29 31 32 32 34 35 34 33 33 31 32 32 31 31 29 26 27 29 28 27 26 28 29 30 30 32 32 29 30 33 30 27 26 30 34 35 39 39 26 10 3 7 3 12 22 21 17 13 7 7 5 3 4 5
23 23 22 22 22 22 22 22 23 24 25 25 25 24 24 25 26 28 30 34 36 30 28 30 30 27 25 25 26 28 30 30 31 31 30 31 33 33 34 35 34 34 34 33 33 33 33 32 31 28 27 26 25 23 22 24 28 28 26 26 27 25 26 31 30 28 28 29 30 31 33 23 4 6 5 3 16 24 17 13 10 2 11 12 6 3 4 4
24 24 24 24 24 24 23 23 24 25 25 25 24 23 23 24 26 28 29 33 36 31 26 26 25 22 20 22 24 26 28 28 28 29 28 30 32 32 34 34 33 34 33 31 31 33 33 30 27 24 20 18 19 18 15 19 26 25 20 19 22 24 26 28 28 29 27 20 21 26 22 8 4 5 13 20 25 16 6 7 1 13 15 10 6 5 6 9
26 26 26 26 25 25 24 23 24 24 24 24 24 22 23 24 25 26 27 29 30 26 18 14 13 11 8 9 12 14 18 19 18 19 21 24 27 29 30 31 31 31 30 29 28 28 26 22 20 19 16 14 15 14 12 14 21 23 19 18 22 24 27 29 29 28 20 14 22 25 15 11 17 19 19 22 18 3 3 4 11 15 11 8 5 6 7 11
28 27 27 26 25 25 24 22 22 22 22 23 22 21 21 22 23 23 21 18 15 13 6 4 5 5 2 3 5 7 9 10 10 12 14 17 21 23 25 26 26 25 24 22 21 21 20 19 19 19 17 15 15 15 13 13 18 22 21 20 22 24 27 29 28 26 24 28 30 20 10 17 23 15 10 17 9 6 9 10 13 10 7 5 4 7 10 16
27 27 27 26 25 23 22 20 18 18 19 18 17 17 18 18 19 18 12 7 4 5 2 6 7 3 5 7 9 9 10 11 9 10 11 12 13 14 16 18 17 18 18 18 20 20 21 22 22 22 20 19 20 17 14 13 18 22 22 22 23 25 27 28 29 28 30 31 18 6 7 15 16 10 7 9 1 10 11 12 12 8 4 3 6 9 14 20
27 27 26 25 22 21 20 18 16 16 16 15 14 14 15 14 15 12 6 3 3 3 2 7 6 8 10 9 9 10 11 12 10 10 9 8 8 10 12 14 15 17 18 19 24 23 22 22 21 20 21 22 20 17 15 16 18 21 23 25 25 27 28 28 28 28 27 22 10 7 12 12 11 9 4 4 11 11 10 14 12 7 3 8 11 15 19 22
25 24 24 22 20 19 19 17 16 15 14 13 12 12 12 13 12 8 5 6 5 5 7 8 8 10 10 10 10 10 11 12 11 11 11 10 11 12 14 16 17 20 21 23 25 23 23 24 23 23 23 21 19 17 18 19 19 21 23 26 28 29 28 25 24 21 15 12 9 11 13 9 7 4 6 13 17 11 6 9 9 1 6 11 14 17 21 25
24 22 22 21 20 19 18 17 16 15 13 12 11 11 12 13 11 6 6 7 7 7 7 5 5 7 9 9 9 9 9 9 9 10 11 12 14 15 17 18 18 20 22 24 24 22 23 24 25 25 20 18 18 19 21 22 23 24 23 26 24 21 18 14 12 8 6 7 5 6 9 9 12 4 8 9 12 11 4 6 10 13 13 13 15 20 23 26
25 23 22 23 21 20 18 16 15 15 14 13 12 13 13 13 13 14 12 8 6 5 4 3 2 4 6 7 7 6 6 7 9 12 16 19 22 24 24 22 21 20 17 19 21 22 26 27 26 24 22 23 24 24 27 27 26 24 22 23 15 8 8 6 4 2 6 11 11 12 11 11 22 20 12 11 14 19 16 19 20 18 13 13 17 23 24 24
26 25 24 25 23 21 19 17 16 15 15 15 14 14 14 11 11 15 16 12 6 5 5 4 3 5 7 9 10 11 14 17 18 20 23 25 27 27 26 24 24 23 19 19 21 20 22 25 26 25 25 25 26 27 27 24 21 20 22 22 12 5 4 4 4 3 7 13 14 15 12 12 21 22 17 15 16 26 28 27 26 21 18 21 23 23 21 22
28 28 28 28 26 23 21 19 18 18 17 17 16 16 17 15 13 13 14 15 12 11 13 15 16 18 19 20 20 21 21 21 22 24 24 24 25 24 24 23 23 25 25 24 23 19 16 19 22 21 21 24 25 22 20 19 21 25 28 25 19 16 10 6 5 6 9 14 11 8 6 8 12 10 8 10 12 25 31 33 33 31 26 22 19 17 17 20
29 29 30 30 28 25 22 21 20 19 19 19 18 19 24 25 21 18 18 19 20 21 22 23 24 25 26 25 25 23 20 18 17 18 18 19 21 22 22 22 22 24 25 21 19 18 16 21 26 24 22 25 24 21 20 22 24 26 26 23 23 26 24 18 16 18 18 15 10 11 13 20 28 30 32 31 27 32 36 35 35 27 18 15 13 15 17 20
29 31 31 31 29 24 22 21 20 19 19 18 18 25 33 32 26 24 24 22 21 21 22 22 22 23 23 21 19 16 14 14 14 15 17 20 22 23 24 24 24 25 25 24 23 19 17 23 29 29 26 24 23 24 25 24 21 18 18 21 25 29 29 23 18 19 17 11 11 18 22 31 38 38 38 34 30 33 31 24 22 18 15 17 18 17 18 20
30 32 32 30 26 22 21 22 22 21 21 21 25 32 37 35 31 31 31 29 27 24 21 19 17 17 15 12 11 12 13 15 15 16 18 19 17 18 19 20 22 24 26 27 28 24 23 27 33 34 31 26 26 26 25 24 24 21 21 24 26 23 24 21 10 6 10 10 13 21 26 29 26 21 21 18 16 22 23 19 19 21 21 21 20 20 20 21
30 31 29 26 24 24 25 25 27 26 23 24 31 35 35 35 35 34 33 33 32 28 25 23 21 20 20 20 22 22 20 18 15 14 16 16 15 14 14 15 16 18 20 21 23 25 26 26 32 37 35 28 25 24 25 26 27 28 29 30 26 18 16 16 10 5 8 8 9 17 26 29 28 29 30 26 26 30 29 25 23 22 22 22 22 23 24 24
27 27 26 26 26 27 27 27 27 25 23 28 32 33 34 37 37 35 35 33 31 29 28 28 26 26 27 27 26 24 21 18 17 16 15 14 14 13 13 14 15 17 19 22 24 28 28 21 21 29 30 24 21 22 26 27 26 28 30 31 30 26 22 18 15 12 10 9 11 14 18 20 27 36 40 38 40 40 33 27 25 24 25 25 24 24 25 25
28 29 31 30 29 30 30 29 25 23 26 32 34 34 36 38 37 36 35 33 32 30 29 29 28 28 28 28 27 26 24 23 23 23 21 20 22 22 22 23 24 25 26 27 26 26 26 20 18 22 24 23 22 21 25 26 25 27 29 30 31 32 30 24 21 23 19 11 9 11 12 18 28 36 40 41 39 36 33 32 31 30 29 27 25 24 24 24
33 34 35 34 33 33 33 31 29 29 32 34 37 37 38 38 38 37 35 33 31 30 30 29 29 29 29 29 29 28 28 28 29 28 27 29 29 27 25 24 23 21 22 25 27 26 25 24 24 25 26 28 29 30 31 29 25 25 26 27 28 30 29 19 14 25 31 21 15 14 11 16 29 37 38 38 35 34 36 37 36 35 32 30 28 26 27 28
36 35 35 33 31 31 29 30 31 32 34 37 39 39 37 37 37 37 35 33 30 30 30 30 30 31 31 31 31 31 31 32 33 31 30 31 30 27 26 25 25 24 25 29 32 34 34 32 31 31 31 33 35 37 37 33 29 28 27 28 28 30 31 24 15 19 26 24 25 24 14 14 29 39 38 35 35 38 41 40 38 38 35 33 33 34 35 37
34 33 31 29 28 26 25 26 29 31 34 35 36 35 34 35 36 36 35 32 30 30 30 30 31 31 31 31 31 31 31 30 30 31 29 29 29 29 27 26 26 26 28 31 32 33 33 31 29 28 28 31 34 35 36 35 34 33 33 34 34 34 38 38 33 28 21 19 22 19 10 11 22 30 31 31 34 38 39 38 36 35 35 36 39 42 45 47
30 29 28 27 26 25 26 28 29 30 32 32 31 31 31 33 34 35 35 32 30 30 30 30 30 30 30 31 30 30 28 25 23 24 25 25 27 29 28 27 28 28 30 30 28 24 21 19 18 15 13 17 22 23 25 26 26 27 27 28 29 33 37 38 39 34 22 22 29 21 12 16 20 20 23 26 30 33 32 32 33 36 38 41 45 49 50 51
26 25 25 26 26 26 28 30 29 29 30 30 30 29 29 31 32 33 33 32 31 30 29 30 30 29 29 29 29 29 28 26 24 24 28 30 29 29 28 26 24 23 23 22 20 20 19 18 19 15 9 9 12 13 14 15 17 19 21 22 23 25 27 29 29 23 15 20 29 23 17 20 20 18 24 29 31 33 35 37 41 43 45 46 48 49 49 49
25 25 25 26 26 27 29 30 29 29 30 29 30 30 30 31 32 32 32 32 31 31 31 31 31 31 30 30 30 29 30 31 30 30 33 33 31 29 28 27 25 24 25 26 28 30 31 32 34 32 27 26 29 30 31 31 30 28 25 26 29 28 30 32 30 27 27 25 25 28 31 33 31 31 36 38 37 39 43 44 45 46 47 48 49 49 50 51
25 26 26 25 24 26 29 31 31 31 31 30 30 32 33 33 33 32 32 31 31 31 30 30 30 30 30 30 30 29 30 30 29 30 33 33 33 33 33 33 33 33 34 36 37 36 33 34 38 40 39 40 43 44 44 41 39 38 34 35 40 39 38 41 40 40 39 29 25 37 45 40 40 44 46 46 45 45 47 48 49 50 50 51 51 51 52 52
24 25 24 24 23 23 25 27 27 29 30 30 30 30 31 31 31 30 29 28 28 27 25 25 25 25 24 25 24 23 24 25 26 27 28 29 30 31 32 33 34 34 35 36 36 34 31 31 36 38 38 39 41 42 42 38 34 35 35 35 39 40 39 42 45 44 40 33 32 41 42 38 42 49 51 51 51 50 51 51 51 51 50 50 51 51 52 52
23 24 22 23 25 24 24 24 23 24 26 27 27 28 28 28 28 28 27 27 27 27 25 24 24 24 24 25 24 23 23 22 23 25 25 27 28 29 32 34 34 36 36 36 36 33 28 30 33 34 35 37 39 40 38 35 32 34 36 36 37 43 45 46 46 43 41 42 43 44 45 47 51 52 52 52 51 51 52 51 50 50 50 51 52 51 51 51
24 24 23 23 25 25 25 26 26 26 26 25 27 29 28 28 29 28 28 29 30 30 29 28 29 29 29 29 28 28 29 28 29 30 31 32 32 32 34 36 36 38 37 36 35 31 28 31 33 32 33 35 37 38 34 30 31 33 35 37 38 42 45 44 44 46 46 47 49 50 50 51 52 52 52 51 49 49 49 48 48 48 47 47 47 46 47 46
25 25 25 25 26 26 27 27 27 28 28 29 30 31 30 30 31 31 30 30 31 32 31 31 32 32 32 33 33 33 33 32 33 35 35 35 35 34 34 34 35 35 34 31 28 23 23 27 30 28 28 29 30 30 30 32 34 34 37 42 44 45 44 40 39 44 47 48 49 48 46 46 49 51 51 48 46 45 43 43 43 42 41 42 42 42 43 43
26 26 26 27 27 28 29 29 29 30 31 31 30 30 31 31 32 32 31 30 31 32 32 32 32 32 32 33 34 34 33 33 33 33 33 33 32 31 30 30 30 30 30 29 26 24 24 27 31 28 24 24 23 23 27 27 21 24 37 43 43 43 44 41 39 41 44 45 46 46 46 47 47 46 45 44 43 41 41 39 38 37 38 38 38 39 40 40
Wind_Direction
267 269 270 272 274 276 278 280 281 284 285 285 285 286 287 288 289 289 290 292 294 295 297 298 299 300 301 303 303 304 306 307 310 310 307 304 304 305 304 302 301 299 300 300 299 298 298 297 298 298 297 296 295 295 294 294 295 292 290 289 287 291 296 300 301 299 297 298 297 295 295 293 294 293 291 293 294 297 299 304 305 301 304 309 306 303 302 305
268 269 271 273 274 276 278 279 279 280 281 281 282 283 284 284 285 286 287 287 288 290 290 292 293 294 295 297 297 298 299 301 305 307 304 302 303 304 303 303 303 303 303 302 302 300 298 299 300 299 298 297 295 294 292 292 291 288 288 285 285 292 296 296 297 297 296 295 294 294 294 292 294 295 293 293 294 297 299 309 309 297 299 301 298 299 299 302
269 271 272 274 276 278 279 280 280 280 279 279 280 281 282 283 284 285 286 286 287 287 287 288 288 289 289 289 290 290 290 292 297 299 296 296 298 299 301 303 303 303 302 301 301 300 298 298 298 297 296 295 294 294 292 292 291 286 284 284 288 294 292 292 296 296 294 292 292 293 293 292 294 293 292 293 294 294 298 311 308 297 298 298 296 297 298 299
269 271 273 274 275 277 278 279 280 280 280 280 280 280 281 282 283 284 285 286 286 287 287 287 288 288 287 286 287 286 287 291 295 294 291 293 294 296 298 299 298 297 297 297 297 297 296 296 295 294 293 291 292 290 289 290 289 285 284 285 291 294 292 294 296 293 292 291 291 292 293 293 292 291 291 293 292 291 297 307 303 297 299 299 297 296 296 295
270 271 272 273 274 275 276 277 277 278 279 280 280 280 281 281 282 283 284 285 285 286 287 287 288 287 287 288 287 287 290 296 299 292 288 289 291 293 293 292 292 292 292 293 294 294 294 294 294 293 292 291 290 288 288 289 286 285 286 288 292 294 293 295 295 292 291 291 291 293 294 292 292 291 292 292 288 288 297 302 300 297 297 296 294 293 292 293
269 271 272 272 273 274 274 275 275 276 277 278 279 280 281 281 282 282 283 283 284 284 285 285 286 286 286 286 286 287 288 295 298 289 287 289 290 290 290 289 288 288 289 291 292 292 292 292 292 292 292 290 290 289 289 289 287 286 288 290 294 294 292 294 294 291 292 293 293 295 294 293 294 294 293 288 284 288 295 298 297 293 291 290 289 289 290 291
269 270 271 273 273 274 274 274 275 275 276 277 278 279 280 281 282 282 283 283 283 283 283 284 284 284 285 284 285 284 283 291 292 285 287 290 290 290 289 288 287 287 288 290 290 290 290 290 290 290 289 289 290 289 289 289 287 286 288 293 294 291 291 294 293 292 294 294 295 297 295 295 298 296 289 283 285 293 297 296 293 288 287 287 288 288 287 287
269 270 270 271 272 273 274 275 276 276 277 278 278 279 279 280 281 282 282 283 283 283 283 284 283 284 284 283 284 282 283 294 288 281 286 288 288 289 288 287 287 288 289 289 288 288 288 288 288 287 287 288 289 289 289 289 287 286 289 292 290 289 291 292 292 292 294 295 296 296 294 296 297 294 285 282 289 299 298 294 289 287 287 287 288 288 286 284
267 268 269 269 270 271 272 274 275 275 276 277 278 279 279 280 280 281 282 282 282 282 283 283 283 284 283 283 284 280 285 297 285 280 283 283 285 285 284 285 286 288 288 287 287 286 287 286 286 285 286 286 287 288 290 288 286 288 290 289 288 290 292 292 291 293 294 296 296 294 295 295 292 289 283 282 294 302 297 291 287 286 285 286 286 285 284 282
266 267 267 268 269 270 271 272 272 274 274 275 276 277 278 278 279 279 280 280 280 280 281 282 282 283 282 283 281 279 287 292 281 280 280 280 282 281 281 282 282 284 283 283 284 284 284 284 284 285 284 285 286 288 289 287 286 288 288 287 289 291 292 292 292 294 296 296 296 295 295 292 288 285 282 287 299 300 295 290 287 286 284 284 284 282 281 280
266 267 267 268 269 270 270 271 272 274 274 275 276 276 277 278 278 278 278 278 278 278 279 280 280 281 281 280 278 281 288 285 279 280 278 278 278 278 279 278 278 279 279 280 281 281 282 282 283 283 283 284 286 288 289 288 286 286 286 287 289 290 291 292 293 297 299 297 297 296 293 288 284 282 284 294 299 296 294 292 290 287 284 283 282 282 281 281
266 267 268 269 270 271 272 273 274 275 276 277 278 278 278 278 278 277 277 277 277 277 277 277 278 278 278 277 278 284 287 284 283 282 280 279 276 275 276 276 276 276 276 277 278 279 280 280 281 280 279 282 285 287 287 286 284 285 287 289 290 291 290 291 295 300 300 296 296 297 293 287 284 285 289 295 295 293 292 292 291 288 285 284 284 284 284 284
266 267 268 269 270 272 273 275 276 277 278 278 279 279 279 278 278 277 276 276 276 275 276 276 275 276 275 276 279 282 283 283 285 285 283 280 277 276 276 276 276 276 277 277 278 279 278 278 278 277 279 283 286 285 284 283 283 286 289 288 290 291 290 295 301 301 298 295 296 297 291 287 288 291 296 298 296 293 292 292 292 289 288 288 288 288 287 288
267 268 269 270 272 273 275 276 277 278 279 279 279 279 279 279 278 277 276 275 275 275 275 274 274 274 274 275 279 279 280 283 285 285 284 280 278 277 276 277 277 277 278 278 279 279 278 278 277 278 281 283 285 284 282 281 283 288 290 287 289 288 291 300 303 299 299 297 298 297 288 289 293 294 298 300 297 294 292 291 291 292 293 292 292 292 291 291
269 270 271 272 273 274 275 276 277 278 279 279 280 280 280 280 279 279 277 276 275 274 274 274 275 275 275 276 278 279 280 281 282 283 282 282 281 278 276 276 277 278 279 279 279 278 277 278 277 280 282 283 284 281 279 280 285 289 286 285 290 291 295 302 298 296 301 298 298 297 288 292 296 295 297 298 297 297 294 293 293 296 297 296 296 295 294 293
270 271 272 273 273 274 275 276 277 278 278 279 280 280 281 280 280 279 278 278 277 276 275 275 275 275 275 278 279 278 279 279 280 280 279 282 281 279 278 276 277 278 280 281 280 279 278 278 279 281 282 284 282 279 280 282 284 286 285 286 292 296 299 300 297 297 301 300 301 298 291 292 296 297 297 297 298 297 296 297 298 298 299 299 298 296 295 294
271 272 273 274 274 275 276 277 278 279 279 280 280 281 281 280 280 279 278 278 276 276 276 275 275 275 276 280 280 279 278 278 277 277 278 281 282 282 280 278 279 279 280 281 280 279 278 278 279 279 282 282 279 278 276 275 281 287 292 294 296 297 297 297 298 299 301 301 301 299 295 294 297 300 299 298 299 298 298 300 300 301 302 302 303 304 302 298
272 273 274 275 276 276 277 277 278 279 280 280 280 281 281 280 280 279 278 277 276 276 275 275 275 275 276 280 281 277 276 276 276 279 281 282 282 281 279 278 279 278 279 279 278 278 277 277 276 277 280 278 276 276 271 276 288 291 293 294 295 294 293 294 296 300 304 302 298 297 296 297 300 301 300 301 303 301 301 303 304 307 308 311 315 317 317 313
273 274 275 275 276 276 277 278 278 278 279 280 281 281 281 281 280 279 277 276 275 274 274 274 273 272 273 276 276 275 275 276 277 278 278 278 278 277 277 277 276 276 277 277 277 277 276 274 270 271 276 276 279 282 281 287 291 289 287 288 289 290 291 293 296 302 304 299 296 294 295 299 302 300 301 306 306 304 304 305 306 312 319 320 319 316 314 311
273 273 273 274 275 276 276 277 277 277 278 279 280 281 282 282 281 279 276 275 274 274 273 273 274 272 273 275 274 274 276 275 276 276 275 274 274 275 275 274 274 275 274 276 276 276 275 269 266 272 280 284 287 287 286 286 285 285 286 286 286 287 289 295 300 304 304 299 296 295 296 299 299 299 305 308 307 306 304 303 307 317 319 314 309 312 307 296
269 270 271 272 273 274 276 276 277 278 278 278 280 281 282 283 283 281 279 276 274 275 274 273 274 274 275 277 274 274 274 273 273 273 273 272 272 273 273 273 274 274 274 276 276 275 271 265 270 281 288 290 288 284 282 282 283 284 284 284 284 286 292 299 304 305 304 300 298 301 300 297 299 304 308 311 311 306 295 309 315 313 309 304 309 316 305 277
267 269 270 270 271 273 275 277 278 279 279 279 281 282 283 284 285 285 285 281 275 274 275 275 274 275 277 276 274 273 270 268 268 268 268 268 268 269 271 272 273 274 276 275 274 274 270 270 281 291 290 286 282 281 281 281 282 281 280 281 282 290 298 300 305 306 303 300 300 303 301 301 306 311 317 328 260 201 309 316 312 305 306 315 332 335 255 205
265 267 269 269 270 272 274 277 278 279 279 280 281 283 284 285 286 286 287 287 282 276 276 277 276 277 277 273 272 269 265 263 262 260 261 261 262 264 267 270 272 274 275 274 276 276 274 280 290 292 287 284 282 281 280 280 280 279 279 280 284 297 301 298 303 305 298 298 300 301 304 311 318 322 55 120 177 313 321 316 303 303 348 48 57 83 149 169
262 264 266 268 270 272 274 276 277 277 278 279 281 282 285 286 286 286 288 290 288 285 283 282 281 279 276 270 266 261 258 259 258 257 258 258 260 262 264 268 271 273 274 276 279 278 278 285 290 289 284 283 283 282 282 281 279 280 282 285 292 303 301 298 303 304 301 300 300 308 314 320 360 117 133 247 312 325 323 308 302 13 90 92 94 90 78 46
259 262 264 266 269 272 274 275 276 277 278 278 279 281 284 285 286 288 291 293 294 297 294 287 284 279 272 263 258 256 256 257 259 260 260 260 261 262 264 267 270 273 276 278 280 280 283 288 289 287 284 284 283 284 285 279 278 281 286 295 302 305 302 300 302 306 310 305 303 317 324 309 197 253 284 304 325 338 327 312 60 116 106 101 100 68 21 351
259 262 264 266 270 272 273 273 274 275 275 275 275 278 280 283 287 289 295 297 300 308 305 285 276 267 259 252 247 255 260 261 263 263 263 262 261 262 264 265 268 272 276 279 280 281 285 289 289 287 287 285 280 283 284 277 278 282 290 304 305 304 302 299 301 305 307 300 302 314 317 286 281 280 287 316 335 3 72 60 126 122 98 95 64 2 332 324
258 261 263 266 269 271 272 271 270 269 268 269 272 275 276 281 286 291 301 304 305 324 324 216 195 193 205 297 279 277 271 266 271 269 266 264 262 262 262 264 267 270 274 277 275 278 286 290 291 290 289 283 281 288 291 286 283 283 293 303 302 303 302 298 301 302 301 303 306 315 315 290 288 281 298 331 335 154 115 102 131 124 99 93 357 318 307 315
259 261 263 265 267 270 271 268 264 261 263 267 270 273 275 279 284 292 306 304 295 1 48 171 166 200 278 293 289 287 278 270 270 263 260 262 262 261 261 265 267 267 271 269 267 276 287 287 287 287 284 284 289 291 286 283 282 285 295 299 298 301 298 295 296 297 302 306 305 324 323 293 281 278 319 337 124 141 122 121 121 105 129 221 285 289 300 311
260 261 261 262 263 265 264 260 257 258 261 266 267 269 271 276 283 288 287 252 262 313 254 210 223 268 276 270 269 272 269 264 257 249 252 262 270 272 272 273 272 270 271 270 272 280 285 283 281 280 279 285 289 284 279 279 281 289 298 299 299 300 296 294 293 294 300 298 273 271 295 289 279 295 333 160 149 120 120 144 129 86 156 226 261 277 288 297
259 259 258 258 257 255 253 253 255 257 259 263 265 266 271 276 279 274 237 227 250 276 265 250 253 264 262 252 252 255 255 257 255 254 262 276 282 282 281 279 276 276 276 275 277 280 281 280 278 278 281 284 282 276 279 283 286 291 297 299 300 299 298 296 292 293 297 282 262 282 291 273 272 340 103 161 161 128 106 157 163 206 240 234 261 275 277 282
256 256 257 255 250 245 246 248 251 253 254 258 265 269 274 277 269 239 215 237 262 275 266 254 242 241 241 238 241 247 251 258 264 268 277 284 288 289 289 286 281 280 279 277 279 281 280 279 278 281 281 278 277 279 283 286 289 291 294 297 299 300 301 296 287 285 274 269 272 308 303 249 242 228 123 161 184 186 261 292 256 265 262 252 276 288 283 279
253 252 255 253 246 243 243 241 244 251 255 259 268 271 273 276 257 229 225 251 275 264 221 160 159 198 199 202 212 226 244 262 272 278 282 284 287 289 290 289 284 280 277 276 279 279 278 276 275 275 273 272 276 280 282 283 286 287 289 291 290 297 299 269 252 240 248 266 275 291 294 245 246 250 239 265 250 227 257 287 275 274 272 263 282 291 286 280
255 254 256 252 245 241 240 237 239 247 254 256 259 265 266 264 249 233 235 242 240 216 208 210 233 237 233 235 242 252 263 271 272 274 277 279 282 283 284 285 281 275 271 274 278 278 279 279 273 268 270 272 273 275 278 280 283 286 288 284 265 243 281 258 256 268 261 271 278 283 278 254 267 270 263 276 250 232 252 269 271 280 280 274 281 285 283 280
259 256 253 250 246 241 238 237 239 244 251 252 253 259 254 243 242 244 243 243 242 247 256 262 269 270 269 268 267 269 271 272 271 272 275 276 277 279 280 280 277 273 271 274 277 276 277 279 275 270 271 275 275 272 271 275 282 286 284 274 254 244 252 256 254 257 273 283 281 269 248 257 282 283 284 294 242 234 254 265 274 283 279 273 279 281 283 285
261 257 251 246 242 239 237 238 242 246 251 253 251 248 242 239 245 251 254 259 260 263 268 271 273 272 273 274 274 274 271 265 265 269 270 270 273 275 275 273 270 269 269 269 273 275 274 276 279 280 279 280 279 272 270 277 280 279 270 256 247 251 252 253 255 259 274 288 272 246 249 265 276 278 281 284 275 266 268 270 274 277 269 265 274 280 284 288
258 256 250 242 239 239 239 241 246 248 249 248 242 241 243 246 253 258 263 268 265 264 268 270 271 271 274 276 272 267 261 258 264 268 268 270 271 270 270 269 266 265 266 267 273 276 274 275 279 282 282 279 275 274 277 277 270 259 251 248 257 263 257 253 260 262 265 275 264 257 265 274 280 285 283 277 274 272 266 260 263 265 267 272 278 282 279 279
248 246 243 239 239 242 243 246 249 249 248 244 240 245 251 257 262 263 264 266 264 263 262 261 263 265 264 264 262 262 265 270 273 270 268 270 271 268 267 264 262 263 265 269 274 275 273 275 279 280 279 274 273 277 275 265 255 248 249 258 267 268 256 251 259 262 247 254 259 254 262 273 276 282 283 268 258 263 259 255 262 269 273 277 282 283 276 273
244 242 240 238 240 243 247 250 253 253 250 243 245 250 257 262 264 264 264 264 262 260 255 253 255 258 260 263 269 272 273 271 265 260 263 264 263 266 267 262 258 256 256 262 270 272 271 275 277 274 273 272 272 271 265 257 253 251 254 260 261 257 252 242 229 235 244 249 255 246 253 262 259 262 271 268 262 267 268 266 267 270 272 275 280 277 273 272
248 250 251 250 248 249 253 256 259 257 245 240 245 252 258 263 265 266 265 263 260 257 255 255 256 260 264 267 269 270 269 264 259 261 263 257 252 257 261 259 257 257 263 270 271 268 265 266 271 271 271 274 269 260 258 259 258 256 254 253 249 247 249 243 229 233 244 253 261 253 251 252 251 259 267 268 267 270 272 271 272 274 275 275 276 273 271 271
255 258 260 261 259 259 263 263 261 254 243 244 251 256 260 265 267 267 264 261 258 257 258 260 261 262 264 264 265 265 265 265 266 268 267 263 264 269 269 270 272 273 274 272 263 261 262 258 260 266 268 271 266 257 260 265 266 263 255 250 248 246 247 250 247 243 245 257 267 261 258 251 251 260 265 263 264 267 272 279 281 279 278 277 277 277 278 280
255 258 260 262 262 262 263 259 254 248 243 249 256 257 258 262 264 263 262 260 259 258 260 261 261 261 261 262 263 265 267 270 272 272 269 268 271 274 274 277 280 277 273 267 260 263 268 265 264 265 265 266 266 266 270 270 265 263 258 254 254 252 250 255 258 249 249 251 250 255 263 250 250 258 260 258 261 268 274 280 282 280 281 283 285 288 290 291
254 256 259 261 259 259 256 251 250 248 242 245 251 253 254 258 260 260 260 260 260 260 261 260 260 261 262 264 266 268 270 272 273 273 271 272 274 274 275 277 277 273 272 271 269 270 269 266 266 265 263 263 266 271 273 268 262 260 258 258 258 258 257 258 258 257 255 250 247 252 259 247 249 256 258 259 264 269 272 275 276 278 283 290 295 298 298 298
254 255 256 254 252 250 245 242 244 243 240 244 250 251 253 255 257 259 259 258 258 260 260 260 261 263 264 266 268 269 271 272 273 273 273 276 277 275 275 276 274 273 274 273 271 270 267 263 264 267 269 269 270 273 271 267 266 264 263 263 262 260 261 259 259 263 264 258 254 254 254 248 254 259 260 261 262 263 265 268 271 277 285 292 298 300 300 300
251 251 249 247 244 240 237 237 238 240 242 246 249 250 251 252 254 255 256 256 257 259 260 261 262 263 265 267 268 268 269 270 272 271 272 273 274 275 277 277 276 276 277 274 271 269 265 259 260 268 278 277 276 276 271 267 266 265 265 266 263 261 261 261 263 265 263 258 255 253 259 264 263 262 259 256 252 250 254 263 273 284 289 292 295 296 297 298
245 243 241 240 237 232 233 237 239 242 245 246 247 248 249 251 253 253 254 256 257 257 259 262 264 265 266 267 267 267 265 265 267 270 272 274 276 277 278 278 277 274 271 268 268 272 275 274 274 275 274 273 276 275 274 275 272 269 267 264 260 258 256 262 269 266 259 259 253 248 261 268 262 257 259 258 255 260 273 283 288 291 292 292 292 293 293 293
241 238 236 235 233 231 234 237 238 240 242 242 244 247 248 250 253 255 256 257 258 258 259 261 262 263 263 262 263 265 265 265 268 269 271 273 274 274 273 272 269 265 261 264 270 277 280 279 277 275 270 269 272 273 275 278 276 272 269 264 262 259 260 269 274 265 265 272 264 261 271 275 273 272 272 273 274 279 287 290 290 289 288 288 288 288 288 290
239 239 238 236 233 233 237 239 239 241 244 243 242 247 252 253 253 256 258 260 261 263 263 262 261 260 261 262 263 265 265 266 266 266 267 269 269 270 271 271 270 267 266 268 271 276 280 279 277 276 274 273 275 276 277 276 273 271 272 270 269 269 268 269 268 264 269 275 271 272 276 277 276 275 274 277 281 284 286 286 286 286 286 286 286 286 287 288
239 240 240 237 236 237 239 242 243 244 247 247 247 251 255 256 256 257 259 261 262 263 262 262 262 260 259 261 261 262 265 266 265 265 266 268 270 272 272 273 273 273 273 274 277 281 283 279 277 278 277 277 278 278 277 273 270 272 272 270 271 271 269 267 267 269 272 271 270 275 277 274 275 276 278 282 286 287 287 286 286 286 285 286 285 285 285 285
240 241 241 239 241 243 245 248 249 247 247 248 249 252 254 256 258 259 259 260 261 260 260 261 262 262 260 260 259 258 260 262 263 264 266 268 271 273 275 276 277 277 279 281 284 287 284 279 282 282 278 278 279 277 275 272 271 273 272 272 275 276 274 272 272 273 272 268 270 276 275 275 279 282 284 287 288 286 285 284 283 283 283 283 282 282 282 282
244 245 244 243 245 247 248 249 250 249 248 246 248 252 254 255 257 258 257 258 259 260 260 260 261 262 263 264 262 259 258 259 260 264 267 270 271 273 276 279 280 281 284 286 287 287 280 276 280 280 274 273 275 275 275 274 274 275 274 276 277 277 276 274 274 275 274 272 276 278 276 278 284 286 287 287 285 283 282 281 281 280 280 279 279 280 280 281
248 249 249 248 249 249 249 249 249 249 249 247 248 253 256 256 257 258 258 258 259 260 260 260 261 262 263 264 264 264 264 264 264 267 271 273 275 276 277 278 281 282 283 284 284 282 273 271 274 273 270 270 273 276 277 275 274 271 269 273 274 271 270 270 270 275 276 276 278 278 275 277 282 284 285 284 282 280 279 278 278 277 277 277 277 278 278 279
250 250 249 250 250 249 249 250 249 249 250 251 251 252 253 255 256 257 258 259 259 260 261 262 264 265 266 267 269 271 272 272 272 273 274 275 275 275 273 273 275 275 274 273 272 267 265 272 279 280 277 276 277 281 280 279 278 263 262 270 274 272 272 273 272 275 280 279 276 272 272 275 277 278 279 279 278 278 277 277 277 276 276 275 276 277 278 279
Height
3197 3197 3197 3197 3198 3198 3198 3198 3198 3198 3198 3198 3198 3199 3199 3199 3199 3198 3198 3198 3198 3198 3198 3197 3197 3197 3196 3196 3196 3195 3196 3196 3196 3195 3194 3193 3193 3193 3193 3192 3192 3192 3192 3191 3191 3191 3191 3190 3190 3190 3189 3189 3189 3188 3188 3187 3187 3186 3185 3184 3184 3184 3184 3184 3184 3183 3181 3180 3179 3178 3178 3177 3177 3177 3175 3174 3174 3175 3175 3176 3175 3174 3174 3173 3172 3171 3170 3170
3195 3196 3196 3196 3196 3196 3196 3197 3197 3197 3197 3197 3197 3197 3197 3197 3197 3197 3197 3197 3197 3197 3196 3196 3196 3195 3195 3195 3194 3194 3194 3194 3194 3194 3193 3192 3192 3192 3191 3191 3191 3190 3190 3190 3190 3190 3189 3189 3189 3188 3188 3188 3187 3187 3186 3186 3186 3185 3183 3182 3181 3182 3181 3182 3182 3181 3179 3178 3177 3176 3176 3175 3175 3174 3173 3172 3172 3172 3173 3174 3173 3172 3172 3171 3170 3169 3168 3168
3194 3194 3194 3194 3195 3195 3195 3195 3195 3195 3195 3195 3196 3196 3196 3196 3196 3196 3195 3195 3195 3195 3195 3195 3194 3194 3194 3193 3193 3192 3192 3193 3193 3193 3192 3191 3191 3190 3190 3190 3189 3189 3189 3189 3188 3188 3188 3187 3187 3187 3187 3186 3186 3186 3185 3185 3184 3183 3182 3179 3179 3180 3179 3179 3180 3179 3177 3176 3175 3174 3174 3173 3173 3172 3171 3170 3169 3170 3171 3172 3172 3170 3169 3169 3168 3167 3166 3165
3192 3192 3193 3193 3193 3193 3193 3193 3193 3193 3193 3194 3194 3194 3194 3194 3194 3194 3194 3194 3194 3193 3193 3193 3193 3192 3192 3191 3191 3191 3190 3191 3192 3191 3190 3190 3189 3189 3189 3189 3188 3187 3187 3187 3187 3186 3186 3186 3186 3185 3185 3184 3184 3184 3183 3183 3182 3180 3179 3178 3177 3178 3177 3177 3177 3176 3175 3174 3173 3172 3172 3171 3170 3170 3169 3168 3166 3167 3169 3170 3170 3167 3167 3166 3165 3164 3164 3163
3191 3191 3191 3191 3191 3192 3192 3192 3191 3192 3192 3192 3192 3192 3192 3192 3192 3192 3192 3192 3192 3192 3191 3191 3191 3190 3190 3190 3189 3189 3189 3190 3191 3189 3189 3189 3188 3188 3188 3187 3187 3186 3185 3185 3185 3184 3184 3184 3184 3183 3183 3182 3182 3181 3181 3181 3180 3177 3176 3176 3176 3175 3174 3174 3175 3173 3172 3172 3171 3170 3169 3168 3167 3167 3167 3165 3163 3165 3167 3168 3167 3165 3164 3163 3162 3162 3161 3161
3189 3189 3189 3189 3190 3190 3190 3190 3190 3190 3190 3190 3190 3190 3190 3190 3190 3190 3190 3190 3190 3190 3189 3189 3189 3188 3188 3187 3187 3187 3187 3189 3189 3187 3186 3187 3186 3186 3186 3185 3185 3184 3184 3183 3183 3183 3182 3182 3182 3182 3181 3180 3180 3179 3179 3179 3178 3175 3173 3174 3174 3173 3172 3172 3171 3170 3170 3169 3168 3169 3167 3166 3165 3164 3163 3160 3159 3163 3166 3165 3164 3163 3161 3160 3159 3159 3158 3158
3187 3187 3188 3188 3188 3188 3188 3188 3188 3188 3188 3188 3188 3188 3188 3188 3188 3188 3188 3188 3187 3187 3187 3187 3187 3186 3186 3185 3185 3184 3185 3188 3188 3185 3184 3185 3184 3184 3184 3183 3183 3182 3182 3182 3181 3181 3181 3180 3180 3180 3179 3178 3178 3177 3177 3176 3175 3173 3171 3171 3171 3170 3169 3169 3168 3167 3167 3166 3166 3166 3164 3164 3162 3160 3158 3154 3156 3162 3162 3162 3161 3159 3158 3157 3156 3156 3155 3155
3185 3185 3185 3186 3186 3186 3186 3186 3186 3186 3186 3186 3186 3186 3186 3186 3186 3186 3186 3185 3185 3185 3185 3185 3184 3184 3184 3183 3183 3181 3182 3186 3185 3183 3183 3183 3182 3182 3182 3181 3181 3180 3180 3180 3179 3179 3178 3178 3178 3177 3177 3176 3175 3174 3174 3174 3172 3170 3169 3169 3168 3167 3167 3167 3165 3164 3164 3163 3163 3162 3161 3161 3160 3156 3152 3151 3155 3159 3158 3158 3157 3155 3154 3154 3153 3153 3152 3151
3183 3183 3183 3183 3183 3183 3183 3183 3184 3184 3184 3184 3184 3184 3184 3184 3184 3183 3183 3183 3183 3183 3183 3183 3182 3182 3182 3181 3180 3179 3180 3183 3182 3181 3181 3181 3181 3180 3180 3179 3178 3178 3178 3177 3177 3177 3176 3176 3175 3175 3174 3174 3173 3172 3171 3171 3168 3167 3167 3166 3164 3164 3164 3163 3161 3161 3161 3160 3159 3157 3157 3158 3157 3153 3147 3148 3154 3154 3153 3153 3153 3152 3151 3151 3150 3149 3148 3148
3181 3181 3181 3181 3181 3181 3181 3181 3181 3181 3181 3181 3182 3182 3181 3181 3181 3181 3181 3181 3181 3180 3180 3180 3180 3180 3180 3180 3178 3176 3179 3181 3180 3180 3179 3179 3179 3178 3177 3177 3176 3176 3175 3175 3175 3174 3174 3173 3173 3172 3172 3171 3170 3169 3169 3168 3165 3164 3163 3162 3162 3161 3160 3160 3158 3158 3158 3156 3155 3153 3153 3153 3153 3149 3145 3148 3151 3149 3149 3149 3149 3149 3147 3147 3146 3145 3145 3144
3178 3178 3179 3179 3179 3179 3179 3179 3179 3179 3179 3179 3179 3179 3179 3179 3179 3179 3178 3178 3178 3178 3178 3178 3178 3178 3177 3177 3175 3175 3177 3178 3177 3178 3177 3177 3176 3175 3175 3174 3174 3174 3173 3173 3172 3172 3171 3170 3170 3170 3169 3168 3168 3167 3166 3164 3162 3161 3160 3158 3159 3158 3157 3157 3155 3156 3155 3152 3151 3150 3149 3149 3148 3146 3145 3148 3147 3144 3144 3144 3145 3145 3144 3143 3142 3142 3142 3141
3175 3176 3176 3176 3176 3176 3176 3176 3176 3177 3177 3177 3177 3177 3177 3177 3176 3176 3176 3175 3175 3175 3175 3175 3175 3175 3175 3174 3174 3174 3175 3174 3174 3175 3175 3174 3174 3173 3172 3171 3171 3171 3170 3170 3170 3169 3168 3168 3167 3167 3166 3166 3166 3165 3163 3161 3158 3158 3157 3155 3155 3155 3154 3154 3154 3153 3152 3148 3148 3146 3144 3144 3143 3142 3145 3146 3144 3141 3139 3139 3140 3140 3140 3139 3139 3139 3138 3138
3173 3173 3173 3174 3174 3174 3174 3174 3174 3174 3174 3174 3174 3174 3174 3174 3174 3173 3173 3173 3172 3172 3172 3172 3172 3172 3172 3172 3172 3173 3172 3171 3171 3171 3171 3171 3171 3170 3170 3169 3168 3168 3168 3168 3167 3166 3165 3165 3165 3164 3164 3164 3164 3163 3160 3157 3156 3156 3155 3151 3151 3151 3149 3151 3152 3150 3148 3145 3144 3144 3140 3139 3140 3140 3141 3142 3140 3138 3136 3135 3135 3135 3136 3135 3135 3135 3134 3135
3170 3170 3171 3171 3171 3171 3171 3171 3171 3171 3171 3171 3171 3171 3171 3171 3171 3170 3170 3170 3169 3169 3169 3169 3169 3169 3168 3169 3170 3170 3169 3169 3168 3168 3168 3168 3168 3167 3167 3166 3166 3166 3165 3165 3165 3164 3163 3162 3162 3162 3162 3162 3161 3160 3157 3154 3154 3154 3152 3148 3148 3147 3145 3148 3149 3146 3145 3142 3141 3141 3136 3134 3136 3138 3138 3137 3136 3134 3132 3132 3130 3130 3132 3131 3131 3130 3129 3130
3167 3167 3167 3168 3168 3168 3168 3168 3168 3168 3167 3167 3167 3167 3167 3167 3167 3167 3167 3167 3166 3166 3166 3166 3166 3165 3164 3166 3167 3166 3167 3166 3165 3165 3165 3165 3165 3165 3164 3164 3163 3163 3163 3163 3162 3161 3160 3159 3159 3160 3160 3160 3159 3157 3154 3152 3152 3153 3149 3146 3145 3144 3141 3143 3145 3144 3142 3137 3137 3137 3131 3129 3131 3134 3135 3133 3131 3130 3128 3128 3128 3127 3127 3126 3126 3125 3124 3125
3164 3164 3164 3164 3165 3165 3165 3165 3165 3164 3164 3164 3164 3164 3164 3164 3164 3164 3163 3163 3163 3163 3163 3162 3163 3162 3161 3163 3164 3164 3163 3163 3162 3162 3162 3162 3162 3162 3162 3161 3161 3161 3161 3160 3160 3159 3158 3157 3158 3158 3158 3159 3157 3154 3152 3151 3150 3150 3148 3144 3143 3142 3139 3138 3140 3142 3140 3134 3132 3132 3127 3125 3127 3129 3130 3129 3127 3126 3124 3124 3124 3123 3123 3122 3121 3120 3120 3120
3161 3161 3161 3162 3162 3162 3162 3162 3162 3161 3161 3161 3161 3161 3161 3161 3160 3160 3160 3160 3160 3160 3159 3159 3159 3159 3158 3159 3161 3161 3160 3160 3159 3159 3159 3160 3159 3159 3159 3158 3158 3158 3158 3158 3157 3156 3156 3155 3155 3156 3157 3156 3154 3152 3151 3150 3149 3148 3146 3143 3141 3140 3138 3135 3135 3138 3138 3133 3129 3126 3121 3119 3122 3124 3125 3125 3124 3121 3120 3120 3120 3119 3119 3118 3117 3116 3116 3115
3158 3158 3158 3159 3159 3159 3159 3159 3159 3158 3158 3158 3158 3158 3157 3157 3157 3157 3157 3157 3157 3156 3156 3156 3156 3155 3155 3156 3157 3157 3157 3157 3157 3157 3157 3156 3156 3155 3155 3155 3155 3155 3154 3154 3153 3153 3153 3152 3152 3153 3154 3152 3151 3151 3149 3147 3147 3147 3145 3142 3139 3137 3135 3134 3132 3134 3134 3129 3126 3122 3117 3114 3116 3119 3120 3121 3120 3117 3116 3116 3115 3115 3115 3115 3114 3114 3113 3112
3155 3155 3155 3156 3156 3156 3156 3156 3156 3156 3155 3155 3155 3155 3154 3154 3154 3154 3154 3154 3154 3154 3153 3152 3153 3153 3153 3154 3154 3154 3155 3154 3154 3154 3154 3153 3152 3151 3151 3151 3151 3151 3151 3150 3149 3150 3149 3148 3148 3150 3150 3148 3148 3149 3146 3145 3145 3144 3142 3140 3137 3134 3132 3131 3131 3131 3130 3124 3121 3119 3115 3113 3113 3114 3115 3117 3117 3114 3112 3112 3112 3112 3112 3112 3111 3111 3110 3110
3152 3152 3152 3152 3153 3153 3153 3153 3153 3153 3153 3152 3152 3151 3151 3150 3150 3150 3150 3150 3150 3150 3150 3149 3149 3149 3150 3150 3150 3151 3151 3151 3150 3150 3150 3149 3148 3147 3147 3146 3147 3147 3147 3147 3146 3145 3145 3143 3143 3146 3146 3146 3146 3145 3143 3142 3141 3139 3138 3136 3134 3132 3129 3129 3129 3128 3126 3120 3116 3116 3113 3110 3110 3110 3112 3113 3113 3111 3109 3109 3110 3110 3109 3108 3107 3107 3107 3106
3148 3149 3149 3149 3150 3150 3150 3150 3150 3150 3150 3149 3149 3148 3148 3147 3146 3145 3145 3146 3148 3147 3146 3146 3145 3144 3146 3147 3146 3147 3147 3147 3147 3147 3146 3145 3144 3143 3142 3142 3143 3143 3143 3144 3143 3142 3141 3139 3140 3143 3144 3143 3143 3141 3140 3138 3137 3136 3135 3132 3131 3129 3125 3125 3127 3125 3123 3117 3112 3113 3110 3107 3107 3107 3107 3109 3108 3107 3107 3107 3107 3106 3105 3104 3104 3104 3102 3101
3145 3145 3146 3146 3146 3147 3147 3148 3147 3147 3147 3146 3146 3146 3145 3144 3143 3142 3140 3140 3143 3144 3143 3142 3141 3141 3143 3143 3142 3143 3142 3142 3143 3142 3142 3141 3141 3140 3138 3138 3139 3139 3139 3141 3140 3138 3136 3135 3139 3142 3141 3140 3139 3138 3137 3136 3135 3133 3132 3130 3127 3127 3123 3121 3123 3122 3120 3115 3110 3109 3106 3103 3105 3104 3103 3104 3105 3105 3106 3105 3103 3101 3101 3101 3101 3100 3098 3098
3141 3142 3142 3142 3143 3144 3144 3145 3145 3144 3144 3144 3143 3143 3142 3141 3141 3139 3137 3135 3137 3141 3140 3138 3138 3138 3139 3139 3138 3139 3137 3137 3138 3138 3138 3137 3137 3137 3135 3135 3136 3136 3136 3137 3137 3135 3133 3133 3137 3139 3137 3136 3135 3135 3135 3133 3132 3130 3129 3128 3125 3125 3123 3118 3119 3118 3117 3114 3109 3107 3103 3101 3101 3100 3101 3102 3103 3104 3103 3101 3099 3098 3099 3099 3098 3097 3095 3095
3138 3138 3138 3139 3140 3140 3141 3141 3141 3141 3141 3141 3140 3140 3139 3139 3137 3136 3135 3131 3129 3135 3137 3134 3133 3134 3135 3134 3133 3133 3132 3133 3133 3133 3135 3134 3134 3134 3133 3132 3133 3132 3133 3134 3134 3131 3130 3132 3134 3134 3133 3133 3132 3132 3132 3130 3128 3127 3127 3127 3124 3123 3122 3118 3116 3114 3113 3112 3109 3105 3102 3100 3100 3099 3099 3101 3102 3102 3100 3097 3096 3096 3097 3096 3095 3095 3094 3093
3135 3135 3135 3136 3136 3137 3138 3138 3138 3138 3138 3137 3137 3137 3136 3135 3134 3133 3133 3129 3125 3128 3132 3130 3128 3129 3129 3129 3128 3128 3129 3130 3130 3131 3132 3131 3131 3131 3130 3130 3130 3129 3130 3131 3130 3128 3128 3131 3131 3130 3130 3130 3129 3130 3130 3128 3126 3125 3126 3125 3123 3122 3120 3118 3115 3112 3110 3109 3108 3107 3104 3098 3099 3099 3098 3100 3101 3100 3097 3095 3095 3095 3094 3093 3092 3092 3092 3090
3132 3132 3132 3132 3133 3133 3134 3135 3135 3134 3134 3133 3133 3134 3133 3133 3132 3131 3130 3127 3123 3124 3126 3125 3125 3125 3125 3125 3126 3127 3127 3127 3128 3129 3129 3129 3128 3128 3128 3128 3127 3127 3127 3128 3127 3125 3126 3128 3128 3127 3128 3128 3128 3128 3128 3127 3124 3123 3124 3124 3123 3120 3118 3116 3114 3112 3109 3107 3106 3109 3109 3099 3094 3095 3096 3097 3099 3098 3096 3094 3094 3094 3091 3090 3091 3090 3089 3088
3128 3128 3128 3128 3129 3129 3130 3131 3132 3131 3130 3130 3130 3131 3131 3130 3129 3129 3129 3126 3122 3121 3122 3122 3123 3123 3124 3125 3125 3126 3126 3126 3127 3127 3127 3126 3126 3126 3125 3125 3125 3125 3125 3126 3124 3123 3125 3126 3125 3125 3125 3125 3125 3125 3126 3125 3123 3121 3121 3122 3121 3119 3117 3114 3113 3111 3108 3106 3103 3105 3109 3101 3090 3089 3092 3094 3095 3094 3094 3094 3093 3093 3091 3089 3089 3088 3086 3084
3124 3124 3124 3125 3125 3126 3127 3128 3128 3128 3127 3127 3128 3128 3127 3127 3127 3127 3129 3128 3122 3120 3121 3121 3122 3123 3123 3124 3124 3125 3124 3125 3125 3125 3125 3125 3124 3124 3123 3123 3124 3123 3123 3123 3121 3122 3123 3123 3123 3123 3123 3122 3122 3123 3123 3123 3121 3119 3119 3119 3118 3117 3115 3113 3112 3110 3107 3105 3102 3101 3106 3101 3089 3087 3090 3091 3093 3092 3091 3092 3091 3090 3090 3089 3087 3085 3083 3082
3121 3121 3121 3121 3122 3123 3124 3125 3125 3125 3125 3125 3125 3125 3124 3125 3124 3125 3128 3127 3120 3118 3120 3120 3121 3122 3122 3123 3123 3123 3123 3123 3124 3124 3124 3124 3123 3123 3123 3122 3122 3121 3121 3120 3119 3119 3120 3120 3120 3120 3120 3120 3121 3121 3120 3120 3119 3118 3117 3115 3115 3114 3113 3112 3110 3108 3107 3104 3099 3099 3103 3100 3089 3085 3088 3089 3091 3092 3090 3090 3088 3087 3087 3087 3085 3083 3081 3080
3117 3117 3117 3118 3119 3120 3121 3122 3123 3123 3123 3123 3123 3123 3122 3122 3122 3123 3125 3121 3116 3116 3118 3118 3119 3120 3120 3121 3121 3122 3122 3122 3123 3123 3123 3123 3123 3123 3122 3121 3121 3119 3118 3117 3117 3117 3117 3117 3117 3118 3118 3118 3118 3118 3118 3118 3117 3116 3115 3113 3112 3111 3110 3110 3107 3107 3107 3100 3095 3096 3099 3100 3092 3086 3087 3087 3089 3089 3088 3088 3086 3085 3085 3085 3083 3082 3080 3079
3114 3114 3114 3115 3116 3117 3118 3119 3120 3121 3121 3121 3121 3121 3121 3120 3120 3120 3118 3114 3113 3115 3114 3115 3116 3117 3117 3118 3119 3120 3121 3121 3122 3122 3122 3122 3122 3122 3121 3121 3120 3118 3116 3115 3115 3115 3115 3114 3114 3115 3116 3116 3116 3115 3115 3115 3115 3114 3114 3112 3111 3109 3108 3107 3105 3107 3105 3097 3093 3093 3095 3097 3092 3085 3086 3088 3088 3087 3085 3085 3083 3082 3083 3083 3082 3081 3080 3078
3110 3110 3111 3112 3113 3114 3115 3116 3117 3118 3118 3119 3119 3119 3119 3119 3116 3113 3111 3111 3113 3113 3112 3113 3114 3114 3115 3116 3117 3118 3119 3120 3120 3120 3120 3120 3120 3119 3120 3119 3118 3117 3114 3113 3113 3112 3111 3111 3112 3112 3113 3114 3113 3112 3112 3112 3112 3112 3112 3112 3112 3110 3108 3106 3103 3103 3100 3093 3091 3092 3094 3092 3084 3082 3085 3087 3088 3085 3081 3081 3080 3080 3081 3081 3080 3080 3078 3077
3106 3107 3108 3108 3109 3111 3112 3113 3114 3114 3115 3116 3117 3117 3117 3117 3111 3106 3107 3111 3112 3110 3110 3112 3112 3113 3114 3114 3115 3116 3117 3118 3118 3118 3118 3117 3117 3117 3117 3117 3116 3115 3113 3111 3111 3109 3107 3107 3108 3109 3109 3110 3110 3110 3109 3109 3109 3110 3110 3111 3111 3110 3108 3105 3102 3100 3095 3091 3090 3091 3092 3086 3078 3078 3080 3082 3085 3081 3078 3078 3076 3077 3078 3078 3078 3077 3075 3074
3102 3103 3104 3105 3106 3107 3109 3110 3111 3111 3112 3113 3114 3114 3114 3111 3105 3104 3106 3108 3109 3109 3109 3110 3110 3110 3110 3111 3112 3112 3114 3114 3114 3114 3114 3114 3114 3114 3114 3114 3114 3113 3112 3110 3108 3107 3105 3102 3102 3104 3105 3106 3107 3107 3108 3107 3107 3107 3107 3108 3107 3106 3105 3102 3099 3096 3091 3088 3089 3090 3088 3081 3076 3076 3076 3078 3080 3078 3076 3075 3072 3073 3075 3074 3074 3073 3072 3070
3099 3099 3100 3101 3102 3103 3105 3106 3107 3108 3109 3109 3110 3111 3107 3102 3101 3103 3104 3105 3107 3107 3107 3107 3107 3107 3106 3107 3108 3108 3110 3110 3110 3111 3110 3110 3111 3110 3110 3111 3111 3111 3110 3109 3106 3105 3103 3099 3098 3100 3101 3102 3103 3104 3105 3105 3104 3102 3103 3103 3102 3102 3101 3098 3095 3092 3091 3088 3086 3085 3081 3076 3074 3074 3074 3075 3075 3074 3072 3069 3069 3070 3070 3070 3070 3069 3069 3067
3095 3095 3096 3098 3099 3099 3100 3101 3103 3105 3105 3106 3107 3103 3098 3097 3099 3101 3101 3102 3104 3104 3104 3104 3104 3104 3103 3103 3104 3104 3106 3106 3107 3107 3107 3107 3106 3106 3106 3107 3108 3108 3108 3107 3105 3104 3101 3097 3096 3097 3097 3099 3101 3100 3101 3102 3100 3099 3099 3098 3098 3098 3098 3095 3092 3091 3092 3088 3083 3080 3076 3072 3072 3070 3069 3069 3067 3067 3066 3064 3066 3066 3066 3066 3065 3065 3065 3064
3089 3090 3091 3094 3095 3096 3096 3098 3099 3101 3101 3103 3101 3095 3093 3094 3097 3098 3099 3099 3100 3101 3102 3102 3102 3101 3101 3100 3101 3101 3102 3103 3103 3103 3103 3103 3102 3101 3102 3103 3104 3104 3105 3104 3102 3101 3099 3094 3093 3095 3094 3096 3097 3097 3097 3097 3097 3095 3095 3095 3095 3095 3094 3093 3091 3090 3090 3084 3078 3077 3074 3072 3072 3068 3065 3065 3063 3063 3062 3061 3063 3063 3062 3062 3061 3061 3061 3060
3085 3086 3087 3089 3091 3091 3092 3094 3095 3096 3097 3097 3093 3090 3090 3091 3093 3095 3096 3096 3097 3098 3099 3099 3099 3098 3098 3098 3098 3098 3099 3099 3100 3100 3100 3100 3099 3097 3098 3099 3100 3100 3101 3101 3099 3098 3097 3092 3090 3091 3090 3091 3093 3094 3092 3091 3092 3092 3091 3092 3093 3091 3089 3090 3089 3087 3086 3080 3074 3073 3071 3070 3070 3066 3064 3064 3061 3059 3059 3059 3059 3059 3059 3059 3058 3058 3057 3055
3081 3083 3084 3086 3087 3088 3088 3090 3090 3091 3092 3090 3087 3086 3087 3087 3089 3091 3091 3092 3093 3094 3094 3095 3096 3095 3095 3095 3095 3096 3096 3096 3096 3097 3097 3097 3095 3094 3095 3096 3097 3097 3097 3098 3097 3095 3095 3091 3087 3086 3087 3087 3088 3089 3087 3087 3088 3089 3088 3088 3089 3087 3085 3085 3083 3080 3080 3075 3070 3069 3066 3064 3064 3063 3062 3061 3057 3056 3056 3055 3055 3055 3055 3055 3054 3053 3052 3051
3078 3079 3079 3082 3083 3083 3084 3086 3086 3087 3086 3084 3084 3084 3084 3084 3086 3087 3087 3088 3089 3090 3090 3091 3092 3092 3092 3092 3092 3093 3093 3093 3093 3094 3094 3093 3092 3092 3092 3093 3093 3093 3093 3094 3093 3091 3091 3089 3084 3083 3084 3083 3084 3084 3084 3085 3085 3085 3085 3084 3084 3083 3082 3080 3076 3075 3075 3070 3067 3065 3059 3057 3060 3060 3059 3056 3054 3054 3053 3052 3051 3051 3050 3050 3049 3048 3047 3046
3074 3074 3074 3077 3078 3079 3080 3080 3080 3081 3080 3080 3080 3080 3081 3082 3082 3082 3083 3084 3084 3085 3087 3087 3088 3089 3088 3089 3089 3089 3090 3089 3089 3090 3089 3089 3089 3089 3089 3089 3089 3090 3089 3089 3089 3088 3087 3085 3081 3080 3080 3079 3079 3080 3081 3082 3082 3081 3080 3080 3080 3080 3079 3077 3071 3069 3070 3066 3064 3062 3054 3051 3056 3057 3054 3053 3052 3051 3050 3049 3047 3046 3045 3044 3043 3043 3042 3041
3068 3069 3070 3072 3073 3073 3074 3074 3074 3075 3074 3074 3075 3076 3077 3078 3078 3078 3079 3079 3080 3081 3083 3083 3084 3084 3085 3085 3085 3086 3086 3085 3085 3085 3084 3084 3085 3085 3085 3085 3085 3086 3086 3085 3085 3085 3084 3080 3076 3074 3075 3074 3074 3076 3076 3076 3077 3077 3076 3076 3077 3076 3076 3073 3067 3065 3065 3061 3059 3058 3049 3046 3051 3052 3050 3050 3050 3048 3047 3046 3044 3041 3039 3038 3037 3036 3036 3035
3063 3064 3066 3067 3067 3069 3070 3069 3069 3070 3069 3069 3071 3073 3074 3075 3075 3075 3075 3076 3077 3077 3078 3079 3080 3080 3080 3081 3082 3082 3082 3081 3080 3080 3080 3080 3080 3080 3080 3081 3081 3082 3082 3080 3080 3080 3079 3075 3072 3070 3070 3069 3069 3071 3071 3070 3071 3071 3070 3072 3073 3071 3071 3069 3064 3062 3061 3057 3057 3055 3045 3041 3045 3047 3047 3047 3047 3045 3043 3042 3040 3037 3035 3033 3032 3031 3029 3028
3058 3060 3061 3062 3063 3064 3064 3063 3064 3065 3065 3067 3068 3070 3071 3071 3070 3071 3071 3072 3073 3073 3074 3074 3075 3076 3076 3077 3077 3078 3079 3078 3076 3076 3076 3076 3076 3076 3076 3077 3078 3078 3078 3076 3076 3075 3074 3072 3070 3068 3067 3065 3065 3066 3065 3065 3066 3065 3066 3068 3067 3067 3067 3064 3060 3059 3055 3051 3053 3049 3040 3040 3043 3043 3044 3043 3042 3041 3039 3038 3036 3034 3031 3030 3028 3027 3025 3024
3054 3055 3056 3057 3058 3059 3058 3059 3060 3061 3062 3064 3064 3065 3066 3066 3066 3066 3067 3068 3069 3069 3069 3070 3070 3071 3072 3073 3073 3073 3075 3075 3074 3073 3072 3072 3072 3072 3073 3073 3073 3074 3074 3073 3073 3072 3070 3069 3069 3068 3066 3064 3062 3062 3062 3062 3062 3062 3062 3063 3063 3063 3063 3060 3058 3056 3049 3046 3047 3044 3038 3039 3041 3040 3040 3040 3038 3036 3035 3033 3032 3030 3028 3027 3026 3024 3022 3021
3049 3050 3051 3052 3053 3054 3054 3055 3057 3057 3058 3060 3060 3061 3061 3061 3061 3062 3063 3063 3064 3065 3065 3066 3067 3067 3068 3068 3069 3069 3070 3071 3070 3069 3068 3068 3068 3069 3069 3069 3069 3070 3070 3069 3069 3068 3066 3064 3065 3064 3063 3061 3059 3059 3060 3060 3058 3058 3058 3058 3058 3059 3058 3057 3054 3049 3046 3043 3041 3040 3038 3036 3036 3037 3037 3036 3034 3032 3031 3030 3028 3027 3026 3024 3023 3021 3019 3018
3045 3045 3046 3048 3048 3049 3049 3050 3052 3052 3054 3055 3056 3056 3057 3057 3058 3059 3059 3059 3060 3061 3061 3061 3062 3063 3063 3064 3065 3065 3065 3066 3065 3064 3064 3064 3064 3064 3064 3064 3064 3064 3065 3064 3064 3064 3061 3058 3058 3058 3056 3056 3055 3054 3055 3055 3052 3052 3053 3052 3052 3052 3052 3051 3045 3041 3043 3041 3033 3034 3037 3033 3031 3034 3033 3032 3031 3029 3028 3027 3025 3023 3022 3020 3018 3017 3016 3014
3040 3041 3042 3043 3044 3044 3045 3046 3048 3049 3049 3050 3051 3052 3053 3053 3054 3055 3055 3056 3056 3057 3057 3057 3057 3059 3059 3060 3061 3060 3061 3061 3060 3060 3060 3060 3060 3059 3059 3059 3059 3058 3059 3059 3058 3059 3057 3053 3053 3052 3050 3050 3050 3049 3049 3049 3047 3047 3048 3046 3046 3046 3045 3042 3037 3036 3041 3036 3027 3030 3032 3027 3026 3028 3027 3027 3026 3024 3022 3021 3020 3018 3016 3015 3013 3012 3011 3010
3036 3037 3039 3040 3040 3041 3042 3043 3044 3045 3046 3047 3047 3048 3049 3049 3050 3051 3051 3051 3051 3052 3053 3053 3053 3054 3055 3056 3056 3056 3057 3057 3056 3056 3056 3056 3055 3055 3054 3054 3054 3054 3054 3054 3053 3054 3052 3048 3048 3047 3045 3044 3045 3044 3043 3044 3043 3042 3041 3041 3040 3038 3036 3034 3032 3033 3034 3029 3025 3026 3024 3020 3021 3022 3021 3020 3019 3017 3016 3015 3013 3012 3011 3009 3008 3007 3006 3005
3033 3034 3035 3036 3036 3038 3039 3040 3041 3041 3042 3043 3043 3043 3045 3045 3046 3047 3047 3047 3047 3047 3049 3049 3049 3050 3050 3051 3051 3051 3052 3053 3052 3052 3052 3051 3051 3051 3050 3049 3049 3049 3049 3049 3049 3049 3047 3044 3043 3043 3040 3038 3039 3039 3038 3039 3038 3036 3035 3035 3034 3030 3028 3028 3028 3027 3026 3023 3021 3021 3017 3013 3014 3014 3013 3013 3012 3011 3010 3009 3007 3006 3005 3004 3003 3002 3001 3000
3029 3030 3031 3032 3033 3034 3034 3035 3037 3037 3038 3039 3038 3039 3041 3041 3041 3042 3042 3042 3043 3043 3044 3044 3044 3045 3046 3046 3046 3046 3047 3048 3048 3047 3047 3047 3046 3047 3046 3046 3045 3045 3045 3045 3044 3045 3044 3040 3040 3040 3036 3032 3034 3035 3033 3033 3032 3029 3027 3027 3025 3023 3022 3023 3023 3022 3021 3017 3015 3013 3010 3007 3007 3008 3007 3006 3006 3005 3004 3003 3003 3001 3000 2999 2998 2997 2996 2995
3024 3025 3027 3028 3028 3029 3030 3031 3032 3032 3033 3034 3035 3036 3037 3036 3037 3038 3038 3038 3038 3039 3039 3040 3040 3040 3041 3041 3041 3041 3041 3042 3042 3042 3042 3042 3042 3042 3042 3042 3042 3041 3040 3041 3041 3041 3041 3038 3037 3038 3033 3029 3031 3030 3028 3030 3027 3020 3018 3019 3019 3019 3018 3018 3017 3016 3016 3013 3009 3006 3003 3002 3002 3003 3002 3001 3000 2999 2999 2998 2998 2996 2995 2994 2993 2993 2992 2990